Weather in Velingrad

Bulgaria     42°01′35″N   23°59′29″E
temp.,
°C
wind,
m/s
gust,
m/s
humid.,
%
clouds,
%
prec.,
mm/h
press.,
hPa
HPBL,
m
11 april, sun
sun1100:00+1ssw117060 0.0 102611
03:000ssw11731 0.0 102611
06:000sw11741 0.0 102612
09:00+5ene11540 0.0 1025320
12:00+9ne32430 0.0 10241085
15:00+11ne42432 0.0 10221111
18:00+9ne33535 0.0 1023757
21:00+3se117987 0.0 102610
12 april, mon
mon1200:00+2ssw21825 0.0 102714
03:00+2sw22875 0.0 102623
06:00+2ssw22865 0.0 102519
09:00+8wsw11595 0.0 1023278
12:00+14ne12415 0.0 1020988
15:00+14nne334789 0.0 10191306
18:00+13ne215523 0.0 1018626
21:00+7s11875 0.0 102010
13 april, tue
tue1300:00+6sw2289100 0.0 102018
03:00+6sw229067 0.0 102020
06:00+5sw228878 0.0 101925
09:00+10w1169100 0.0 1017239
12:00+15n1352100 0.0 10151256
15:00+16s1547100 0.4 10131711
18:00+14sse135557 0.1 1012941
21:00+8sw128724 0.3 101353
14 april, wed
wed1400:00+8wsw2589100 0.9 1013307
03:00+7sw239070 1.2 101279
06:00+5sw23872 0.0 101256
09:00+8wsw2469100 0.1 1011592
12:00+9wsw366594 1.4 10101309
15:00+6n2482100 5.1 1011859
18:00+5nne228671 2.8 1013407
21:00+3ene1193100 3.7 1015364
15 april, thu
thu1500:00+3ene119523 0.0 101569
03:00+1ne019767 0.1 101749
06:00+1ne0099100 0.4 1017119
09:00+2n119591 0.7 1018251
12:00+5nne237251 0.1 1017970
15:00+8ne235897 0.4 10161319
18:00+6ne226363 0.6 1016878
21:000ne129876 0.9 102093